Data supplied by UK-AIR on 13/7/2016
All Data GMT hour ending 
Status: R =Ratified P=Provisional,P*=As supplied
,,London Teddington Bushy Park,,,,,,,,,,,,,,,,,,,,,,,
Date,time,"Non-volatile PM<sub>2.5</sub> (Hourly measured)",status,unit,"PM<sub>2.5</sub> particulate matter (Hourly measured)",status,unit,"Volatile PM<sub>2.5</sub> (Hourly measured)",status,unit
 
01-01-2015,01:00,20.000,R,ugm-3 (TEOM FDMS),24.100,R,ugm-3 (TEOM FDMS),4.100,R,ugm-3 (TEOM FDMS)
01-01-2015,02:00,14.600,R,ugm-3 (TEOM FDMS),19.000,R,ugm-3 (TEOM FDMS),4.400,R,ugm-3 (TEOM FDMS)
01-01-2015,03:00,14.400,R,ugm-3 (TEOM FDMS),16.100,R,ugm-3 (TEOM FDMS),1.700,R,ugm-3 (TEOM FDMS)
01-01-2015,04:00,11.100,R,ugm-3 (TEOM FDMS),14.900,R,ugm-3 (TEOM FDMS),3.800,R,ugm-3 (TEOM FDMS)
01-01-2015,05:00,8.600,R,ugm-3 (TEOM FDMS),11.700,R,ugm-3 (TEOM FDMS),3.100,R,ugm-3 (TEOM FDMS)
01-01-2015,06:00,9.300,R,ugm-3 (TEOM FDMS),12.600,R,ugm-3 (TEOM FDMS),3.300,R,ugm-3 (TEOM FDMS)
01-01-2015,07:00,13.100,R,ugm-3 (TEOM FDMS),15.600,R,ugm-3 (TEOM FDMS),2.500,R,ugm-3 (TEOM FDMS)
01-01-2015,08:00,13.600,R,ugm-3 (TEOM FDMS),16.500,R,ugm-3 (TEOM FDMS),2.900,R,ugm-3 (TEOM FDMS)
01-01-2015,09:00,12.200,R,ugm-3 (TEOM FDMS),15.400,R,ugm-3 (TEOM FDMS),3.200,R,ugm-3 (TEOM FDMS)
01-01-2015,10:00,16.400,R,ugm-3 (TEOM FDMS),19.800,R,ugm-3 (TEOM FDMS),3.400,R,ugm-3 (TEOM FDMS)
01-01-2015,11:00,16.000,R,ugm-3 (TEOM FDMS),21.400,R,ugm-3 (TEOM FDMS),5.400,R,ugm-3 (TEOM FDMS)
01-01-2015,12:00,14.400,R,ugm-3 (TEOM FDMS),17.900,R,ugm-3 (TEOM FDMS),3.500,R,ugm-3 (TEOM FDMS)
01-01-2015,13:00,12.200,R,ugm-3 (TEOM FDMS),17.500,R,ugm-3 (TEOM FDMS),5.300,R,ugm-3 (TEOM FDMS)
01-01-2015,14:00,14.200,R,ugm-3 (TEOM FDMS),17.600,R,ugm-3 (TEOM FDMS),3.400,R,ugm-3 (TEOM FDMS)
01-01-2015,15:00,12.500,R,ugm-3 (TEOM FDMS),17.500,R,ugm-3 (TEOM FDMS),5.000,R,ugm-3 (TEOM FDMS)
01-01-2015,16:00,9.500,R,ugm-3 (TEOM FDMS),14.700,R,ugm-3 (TEOM FDMS),5.200,R,ugm-3 (TEOM FDMS)
01-01-2015,17:00,9.400,R,ugm-3 (TEOM FDMS),12.100,R,ugm-3 (TEOM FDMS),2.700,R,ugm-3 (TEOM FDMS)
01-01-2015,18:00,9.200,R,ugm-3 (TEOM FDMS),11.900,R,ugm-3 (TEOM FDMS),2.700,R,ugm-3 (TEOM FDMS)
01-01-2015,19:00,10.000,R,ugm-3 (TEOM FDMS),13.700,R,ugm-3 (TEOM FDMS),3.700,R,ugm-3 (TEOM FDMS)
01-01-2015,20:00,8.200,R,ugm-3 (TEOM FDMS),13.100,R,ugm-3 (TEOM FDMS),4.900,R,ugm-3 (TEOM FDMS)
01-01-2015,21:00,7.700,R,ugm-3 (TEOM FDMS),10.700,R,ugm-3 (TEOM FDMS),3.000,R,ugm-3 (TEOM FDMS)
01-01-2015,22:00,3.300,R,ugm-3 (TEOM FDMS),9.300,R,ugm-3 (TEOM FDMS),6.000,R,ugm-3 (TEOM FDMS)
01-01-2015,23:00,1.500,R,ugm-3 (TEOM FDMS),1.700,R,ugm-3 (TEOM FDMS),0.200,R,ugm-3 (TEOM FDMS)
01-01-2015,24:00,-0.900,R,ugm-3 (TEOM FDMS),2.000,R,ugm-3 (TEOM FDMS),2.900,R,ugm-3 (TEOM FDMS)
02-01-2015,01:00,-0.500,R,ugm-3 (TEOM FDMS),1.500,R,ugm-3 (TEOM FDMS),2.000,R,ugm-3 (TEOM FDMS)
02-01-2015,02:00,0.000,R,ugm-3 (TEOM FDMS),0.700,R,ugm-3 (TEOM FDMS),0.700,R,ugm-3 (TEOM FDMS)
02-01-2015,03:00,0.400,R,ugm-3 (TEOM FDMS),1.000,R,ugm-3 (TEOM FDMS),0.600,R,ugm-3 (TEOM FDMS)
02-01-2015,04:00,-1.200,R,ugm-3 (TEOM FDMS),2.200,R,ugm-3 (TEOM FDMS),3.400,R,ugm-3 (TEOM FDMS)
02-01-2015,05:00,0.000,R,ugm-3 (TEOM FDMS),-0.400,R,ugm-3 (TEOM FDMS),-0.400,R,ugm-3 (TEOM FDMS)
02-01-2015,06:00,0.400,R,ugm-3 (TEOM FDMS),1.400,R,ugm-3 (TEOM FDMS),1.000,R,ugm-3 (TEOM FDMS)
02-01-2015,07:00,2.100,R,ugm-3 (TEOM FDMS),2.700,R,ugm-3 (TEOM FDMS),0.600,R,ugm-3 (TEOM FDMS)
02-01-2015,08:00,3.800,R,ugm-3 (TEOM FDMS),2.900,R,ugm-3 (TEOM FDMS),-0.900,R,ugm-3 (TEOM FDMS)
02-01-2015,09:00,0.800,R,ugm-3 (TEOM FDMS),-0.900,R,ugm-3 (TEOM FDMS),-1.700,R,ugm-3 (TEOM FDMS)
02-01-2015,10:00,3.200,R,ugm-3 (TEOM FDMS),2.000,R,ugm-3 (TEOM FDMS),-1.200,R,ugm-3 (TEOM FDMS)
02-01-2015,11:00,5.500,R,ugm-3 (TEOM FDMS),6.300,R,ugm-3 (TEOM FDMS),0.800,R,ugm-3 (TEOM FDMS)
02-01-2015,12:00,5.200,R,ugm-3 (TEOM FDMS),4.300,R,ugm-3 (TEOM FDMS),-0.900,R,ugm-3 (TEOM FDMS)
02-01-2015,13:00,5.500,R,ugm-3 (TEOM FDMS),7.500,R,ugm-3 (TEOM FDMS),2.000,R,ugm-3 (TEOM FDMS)
02-01-2015,14:00,5.100,R,ugm-3 (TEOM FDMS),7.900,R,ugm-3 (TEOM FDMS),2.800,R,ugm-3 (TEOM FDMS)
02-01-2015,15:00,7.000,R,ugm-3 (TEOM FDMS),8.400,R,ugm-3 (TEOM FDMS),1.400,R,ugm-3 (TEOM FDMS)
02-01-2015,16:00,4.100,R,ugm-3 (TEOM FDMS),4.100,R,ugm-3 (TEOM FDMS),0.000,R,ugm-3 (TEOM FDMS)
02-01-2015,17:00,5.700,R,ugm-3 (TEOM FDMS),6.100,R,ugm-3 (TEOM FDMS),0.400,R,ugm-3 (TEOM FDMS)
02-01-2015,18:00,12.500,R,ugm-3 (TEOM FDMS),13.200,R,ugm-3 (TEOM FDMS),0.700,R,ugm-3 (TEOM FDMS)
02-01-2015,19:00,9.300,R,ugm-3 (TEOM FDMS),8.700,R,ugm-3 (TEOM FDMS),-0.600,R,ugm-3 (TEOM FDMS)
02-01-2015,20:00,10.800,R,ugm-3 (TEOM FDMS),14.900,R,ugm-3 (TEOM FDMS),4.100,R,ugm-3 (TEOM FDMS)
02-01-2015,21:00,12.800,R,ugm-3 (TEOM FDMS),14.700,R,ugm-3 (TEOM FDMS),1.900,R,ugm-3 (TEOM FDMS)
02-01-2015,22:00,12.100,R,ugm-3 (TEOM FDMS),14.100,R,ugm-3 (TEOM FDMS),2.000,R,ugm-3 (TEOM FDMS)
02-01-2015,23:00,10.500,R,ugm-3 (TEOM FDMS),14.800,R,ugm-3 (TEOM FDMS),4.300,R,ugm-3 (TEOM FDMS)
02-01-2015,24:00,9.200,R,ugm-3 (TEOM FDMS),11.200,R,ugm-3 (TEOM FDMS),2.000,R,ugm-3 (TEOM FDMS)
03-01-2015,01:00,8.200,R,ugm-3 (TEOM FDMS),11.800,R,ugm-3 (TEOM FDMS),3.600,R,ugm-3 (TEOM FDMS)
03-01-2015,02:00,4.200,R,ugm-3 (TEOM FDMS),9.500,R,ugm-3 (TEOM FDMS),5.300,R,ugm-3 (TEOM FDMS)
03-01-2015,03:00,4.600,R,ugm-3 (TEOM FDMS),8.800,R,ugm-3 (TEOM FDMS),4.200,R,ugm-3 (TEOM FDMS)
03-01-2015,04:00,1.400,R,ugm-3 (TEOM FDMS),3.200,R,ugm-3 (TEOM FDMS),1.800,R,ugm-3 (TEOM FDMS)
03-01-2015,05:00,3.600,R,ugm-3 (TEOM FDMS),7.700,R,ugm-3 (TEOM FDMS),4.100,R,ugm-3 (TEOM FDMS)
03-01-2015,06:00,0.700,R,ugm-3 (TEOM FDMS),6.200,R,ugm-3 (TEOM FDMS),5.500,R,ugm-3 (TEOM FDMS)
03-01-2015,07:00,1.100,R,ugm-3 (TEOM FDMS),6.300,R,ugm-3 (TEOM FDMS),5.200,R,ugm-3 (TEOM FDMS)
03-01-2015,08:00,-1.600,R,ugm-3 (TEOM FDMS),1.500,R,ugm-3 (TEOM FDMS),3.100,R,ugm-3 (TEOM FDMS)
03-01-2015,09:00,-0.800,R,ugm-3 (TEOM FDMS),5.100,R,ugm-3 (TEOM FDMS),5.900,R,ugm-3 (TEOM FDMS)
03-01-2015,10:00,2.000,R,ugm-3 (TEOM FDMS),1.200,R,ugm-3 (TEOM FDMS),-0.800,R,ugm-3 (TEOM FDMS)
03-01-2015,11:00,3.100,R,ugm-3 (TEOM FDMS),6.300,R,ugm-3 (TEOM FDMS),3.200,R,ugm-3 (TEOM FDMS)
03-01-2015,12:00,2.600,R,ugm-3 (TEOM FDMS),7.100,R,ugm-3 (TEOM FDMS),4.500,R,ugm-3 (TEOM FDMS)
03-01-2015,13:00,7.700,R,ugm-3 (TEOM FDMS),9.300,R,ugm-3 (TEOM FDMS),1.600,R,ugm-3 (TEOM FDMS)
03-01-2015,14:00,10.100,R,ugm-3 (TEOM FDMS),11.300,R,ugm-3 (TEOM FDMS),1.200,R,ugm-3 (TEOM FDMS)
03-01-2015,15:00,7.900,R,ugm-3 (TEOM FDMS),7.300,R,ugm-3 (TEOM FDMS),-0.600,R,ugm-3 (TEOM FDMS)
03-01-2015,16:00,6.100,R,ugm-3 (TEOM FDMS),5.100,R,ugm-3 (TEOM FDMS),-1.000,R,ugm-3 (TEOM FDMS)
03-01-2015,17:00,6.300,R,ugm-3 (TEOM FDMS),6.100,R,ugm-3 (TEOM FDMS),-0.200,R,ugm-3 (TEOM FDMS)
03-01-2015,18:00,5.600,R,ugm-3 (TEOM FDMS),5.200,R,ugm-3 (TEOM FDMS),-0.400,R,ugm-3 (TEOM FDMS)
03-01-2015,19:00,6.900,R,ugm-3 (TEOM FDMS),8.400,R,ugm-3 (TEOM FDMS),1.500,R,ugm-3 (TEOM FDMS)
03-01-2015,20:00,16.900,R,ugm-3 (TEOM FDMS),16.000,R,ugm-3 (TEOM FDMS),-0.900,R,ugm-3 (TEOM FDMS)
03-01-2015,21:00,12.300,R,ugm-3 (TEOM FDMS),13.500,R,ugm-3 (TEOM FDMS),1.200,R,ugm-3 (TEOM FDMS)
03-01-2015,22:00,10.600,R,ugm-3 (TEOM FDMS),14.400,R,ugm-3 (TEOM FDMS),3.800,R,ugm-3 (TEOM FDMS)
03-01-2015,23:00,17.100,R,ugm-3 (TEOM FDMS),16.900,R,ugm-3 (TEOM FDMS),-0.200,R,ugm-3 (TEOM FDMS)
03-01-2015,24:00,7.600,R,ugm-3 (TEOM FDMS),8.900,R,ugm-3 (TEOM FDMS),1.300,R,ugm-3 (TEOM FDMS)
04-01-2015,01:00,9.600,R,ugm-3 (TEOM FDMS),15.500,R,ugm-3 (TEOM FDMS),5.900,R,ugm-3 (TEOM FDMS)
04-01-2015,02:00,9.400,R,ugm-3 (TEOM FDMS),13.300,R,ugm-3 (TEOM FDMS),3.900,R,ugm-3 (TEOM FDMS)
04-01-2015,03:00,7.300,R,ugm-3 (TEOM FDMS),12.900,R,ugm-3 (TEOM FDMS),5.600,R,ugm-3 (TEOM FDMS)
04-01-2015,04:00,5.700,R,ugm-3 (TEOM FDMS),10.400,R,ugm-3 (TEOM FDMS),4.700,R,ugm-3 (TEOM FDMS)
04-01-2015,05:00,7.900,R,ugm-3 (TEOM FDMS),12.900,R,ugm-3 (TEOM FDMS),5.000,R,ugm-3 (TEOM FDMS)
04-01-2015,06:00,11.500,R,ugm-3 (TEOM FDMS),15.000,R,ugm-3 (TEOM FDMS),3.500,R,ugm-3 (TEOM FDMS)
04-01-2015,07:00,7.700,R,ugm-3 (TEOM FDMS),8.300,R,ugm-3 (TEOM FDMS),0.600,R,ugm-3 (TEOM FDMS)
04-01-2015,08:00,6.900,R,ugm-3 (TEOM FDMS),9.200,R,ugm-3 (TEOM FDMS),2.300,R,ugm-3 (TEOM FDMS)
04-01-2015,09:00,7.600,R,ugm-3 (TEOM FDMS),9.400,R,ugm-3 (TEOM FDMS),1.800,R,ugm-3 (TEOM FDMS)
04-01-2015,10:00,8.900,R,ugm-3 (TEOM FDMS),9.200,R,ugm-3 (TEOM FDMS),0.300,R,ugm-3 (TEOM FDMS)
04-01-2015,11:00,9.300,R,ugm-3 (TEOM FDMS),10.600,R,ugm-3 (TEOM FDMS),1.300,R,ugm-3 (TEOM FDMS)
04-01-2015,12:00,11.700,R,ugm-3 (TEOM FDMS),15.400,R,ugm-3 (TEOM FDMS),3.700,R,ugm-3 (TEOM FDMS)
04-01-2015,13:00,9.300,R,ugm-3 (TEOM FDMS),14.700,R,ugm-3 (TEOM FDMS),5.400,R,ugm-3 (TEOM FDMS)
04-01-2015,14:00,9.200,R,ugm-3 (TEOM FDMS),13.900,R,ugm-3 (TEOM FDMS),4.700,R,ugm-3 (TEOM FDMS)
04-01-2015,15:00,11.800,R,ugm-3 (TEOM FDMS),16.300,R,ugm-3 (TEOM FDMS),4.500,R,ugm-3 (TEOM FDMS)
04-01-2015,16:00,11.900,R,ugm-3 (TEOM FDMS),16.300,R,ugm-3 (TEOM FDMS),4.400,R,ugm-3 (TEOM FDMS)
04-01-2015,17:00,15.500,R,ugm-3 (TEOM FDMS),20.600,R,ugm-3 (TEOM FDMS),5.100,R,ugm-3 (TEOM FDMS)
04-01-2015,18:00,13.400,R,ugm-3 (TEOM FDMS),21.500,R,ugm-3 (TEOM FDMS),8.100,R,ugm-3 (TEOM FDMS)
04-01-2015,19:00,10.900,R,ugm-3 (TEOM FDMS),16.700,R,ugm-3 (TEOM FDMS),5.800,R,ugm-3 (TEOM FDMS)
04-01-2015,20:00,14.600,R,ugm-3 (TEOM FDMS),19.100,R,ugm-3 (TEOM FDMS),4.500,R,ugm-3 (TEOM FDMS)
04-01-2015,21:00,16.700,R,ugm-3 (TEOM FDMS),21.900,R,ugm-3 (TEOM FDMS),5.200,R,ugm-3 (TEOM FDMS)
04-01-2015,22:00,14.900,R,ugm-3 (TEOM FDMS),19.400,R,ugm-3 (TEOM FDMS),4.500,R,ugm-3 (TEOM FDMS)
04-01-2015,23:00,17.500,R,ugm-3 (TEOM FDMS),21.400,R,ugm-3 (TEOM FDMS),3.900,R,ugm-3 (TEOM FDMS)
04-01-2015,24:00,16.400,R,ugm-3 (TEOM FDMS),21.100,R,ugm-3 (TEOM FDMS),4.700,R,ugm-3 (TEOM FDMS)
05-01-2015,01:00,16.200,R,ugm-3 (TEOM FDMS),23.000,R,ugm-3 (TEOM FDMS),6.800,R,ugm-3 (TEOM FDMS)
05-01-2015,02:00,16.300,R,ugm-3 (TEOM FDMS),21.400,R,ugm-3 (TEOM FDMS),5.100,R,ugm-3 (TEOM FDMS)
05-01-2015,03:00,16.100,R,ugm-3 (TEOM FDMS),23.000,R,ugm-3 (TEOM FDMS),6.900,R,ugm-3 (TEOM FDMS)
05-01-2015,04:00,12.100,R,ugm-3 (TEOM FDMS),18.100,R,ugm-3 (TEOM FDMS),6.000,R,ugm-3 (TEOM FDMS)
05-01-2015,05:00,8.700,R,ugm-3 (TEOM FDMS),14.300,R,ugm-3 (TEOM FDMS),5.600,R,ugm-3 (TEOM FDMS)
05-01-2015,06:00,8.800,R,ugm-3 (TEOM FDMS),12.000,R,ugm-3 (TEOM FDMS),3.200,R,ugm-3 (TEOM FDMS)
05-01-2015,07:00,8.600,R,ugm-3 (TEOM FDMS),13.900,R,ugm-3 (TEOM FDMS),5.300,R,ugm-3 (TEOM FDMS)
05-01-2015,08:00,10.500,R,ugm-3 (TEOM FDMS),14.300,R,ugm-3 (TEOM FDMS),3.800,R,ugm-3 (TEOM FDMS)
05-01-2015,09:00,10.400,R,ugm-3 (TEOM FDMS),14.400,R,ugm-3 (TEOM FDMS),4.000,R,ugm-3 (TEOM FDMS)
05-01-2015,10:00,10.200,R,ugm-3 (TEOM FDMS),14.400,R,ugm-3 (TEOM FDMS),4.200,R,ugm-3 (TEOM FDMS)
05-01-2015,11:00,12.600,R,ugm-3 (TEOM FDMS),14.400,R,ugm-3 (TEOM FDMS),1.800,R,ugm-3 (TEOM FDMS)
05-01-2015,12:00,13.200,R,ugm-3 (TEOM FDMS),18.600,R,ugm-3 (TEOM FDMS),5.400,R,ugm-3 (TEOM FDMS)
05-01-2015,13:00,12.700,R,ugm-3 (TEOM FDMS),20.700,R,ugm-3 (TEOM FDMS),8.000,R,ugm-3 (TEOM FDMS)
05-01-2015,14:00,5.700,R,ugm-3 (TEOM FDMS),12.100,R,ugm-3 (TEOM FDMS),6.400,R,ugm-3 (TEOM FDMS)
05-01-2015,15:00,4.300,R,ugm-3 (TEOM FDMS),10.100,R,ugm-3 (TEOM FDMS),5.800,R,ugm-3 (TEOM FDMS)
05-01-2015,16:00,5.600,R,ugm-3 (TEOM FDMS),8.700,R,ugm-3 (TEOM FDMS),3.100,R,ugm-3 (TEOM FDMS)
05-01-2015,17:00,2.700,R,ugm-3 (TEOM FDMS),7.400,R,ugm-3 (TEOM FDMS),4.700,R,ugm-3 (TEOM FDMS)
05-01-2015,18:00,5.500,R,ugm-3 (TEOM FDMS),8.000,R,ugm-3 (TEOM FDMS),2.500,R,ugm-3 (TEOM FDMS)
05-01-2015,19:00,6.700,R,ugm-3 (TEOM FDMS),10.000,R,ugm-3 (TEOM FDMS),3.300,R,ugm-3 (TEOM FDMS)
05-01-2015,20:00,7.100,R,ugm-3 (TEOM FDMS),10.100,R,ugm-3 (TEOM FDMS),3.000,R,ugm-3 (TEOM FDMS)
05-01-2015,21:00,0.800,R,ugm-3 (TEOM FDMS),4.400,R,ugm-3 (TEOM FDMS),3.600,R,ugm-3 (TEOM FDMS)
05-01-2015,22:00,2.300,R,ugm-3 (TEOM FDMS),4.400,R,ugm-3 (TEOM FDMS),2.100,R,ugm-3 (TEOM FDMS)
05-01-2015,23:00,5.100,R,ugm-3 (TEOM FDMS),7.700,R,ugm-3 (TEOM FDMS),2.600,R,ugm-3 (TEOM FDMS)
05-01-2015,24:00,4.500,R,ugm-3 (TEOM FDMS),9.300,R,ugm-3 (TEOM FDMS),4.800,R,ugm-3 (TEOM FDMS)
06-01-2015,01:00,4.500,R,ugm-3 (TEOM FDMS),8.000,R,ugm-3 (TEOM FDMS),3.500,R,ugm-3 (TEOM FDMS)
06-01-2015,02:00,3.000,R,ugm-3 (TEOM FDMS),5.300,R,ugm-3 (TEOM FDMS),2.300,R,ugm-3 (TEOM FDMS)
06-01-2015,03:00,2.200,R,ugm-3 (TEOM FDMS),5.400,R,ugm-3 (TEOM FDMS),3.200,R,ugm-3 (TEOM FDMS)
06-01-2015,04:00,3.900,R,ugm-3 (TEOM FDMS),6.000,R,ugm-3 (TEOM FDMS),2.100,R,ugm-3 (TEOM FDMS)
06-01-2015,05:00,1.700,R,ugm-3 (TEOM FDMS),4.100,R,ugm-3 (TEOM FDMS),2.400,R,ugm-3 (TEOM FDMS)
06-01-2015,06:00,4.000,R,ugm-3 (TEOM FDMS),6.800,R,ugm-3 (TEOM FDMS),2.800,R,ugm-3 (TEOM FDMS)
06-01-2015,07:00,6.100,R,ugm-3 (TEOM FDMS),6.900,R,ugm-3 (TEOM FDMS),0.800,R,ugm-3 (TEOM FDMS)
06-01-2015,08:00,5.900,R,ugm-3 (TEOM FDMS),7.400,R,ugm-3 (TEOM FDMS),1.500,R,ugm-3 (TEOM FDMS)
06-01-2015,09:00,4.200,R,ugm-3 (TEOM FDMS),5.000,R,ugm-3 (TEOM FDMS),0.800,R,ugm-3 (TEOM FDMS)
06-01-2015,10:00,3.500,R,ugm-3 (TEOM FDMS),6.900,R,ugm-3 (TEOM FDMS),3.400,R,ugm-3 (TEOM FDMS)
06-01-2015,11:00,3.300,R,ugm-3 (TEOM FDMS),6.600,R,ugm-3 (TEOM FDMS),3.300,R,ugm-3 (TEOM FDMS)
06-01-2015,12:00,5.300,R,ugm-3 (TEOM FDMS),6.600,R,ugm-3 (TEOM FDMS),1.300,R,ugm-3 (TEOM FDMS)
06-01-2015,13:00,6.700,R,ugm-3 (TEOM FDMS),7.800,R,ugm-3 (TEOM FDMS),1.100,R,ugm-3 (TEOM FDMS)
06-01-2015,14:00,2.400,R,ugm-3 (TEOM FDMS),2.100,R,ugm-3 (TEOM FDMS),-0.300,R,ugm-3 (TEOM FDMS)
06-01-2015,15:00,-0.200,R,ugm-3 (TEOM FDMS),2.100,R,ugm-3 (TEOM FDMS),2.300,R,ugm-3 (TEOM FDMS)
06-01-2015,16:00,2.000,R,ugm-3 (TEOM FDMS),3.100,R,ugm-3 (TEOM FDMS),1.100,R,ugm-3 (TEOM FDMS)
06-01-2015,17:00,2.900,R,ugm-3 (TEOM FDMS),4.200,R,ugm-3 (TEOM FDMS),1.300,R,ugm-3 (TEOM FDMS)
06-01-2015,18:00,3.600,R,ugm-3 (TEOM FDMS),3.300,R,ugm-3 (TEOM FDMS),-0.300,R,ugm-3 (TEOM FDMS)
06-01-2015,19:00,2.900,R,ugm-3 (TEOM FDMS),3.200,R,ugm-3 (TEOM FDMS),0.300,R,ugm-3 (TEOM FDMS)
06-01-2015,20:00,5.600,R,ugm-3 (TEOM FDMS),5.900,R,ugm-3 (TEOM FDMS),0.300,R,ugm-3 (TEOM FDMS)
06-01-2015,21:00,9.800,R,ugm-3 (TEOM FDMS),10.900,R,ugm-3 (TEOM FDMS),1.100,R,ugm-3 (TEOM FDMS)
06-01-2015,22:00,11.100,R,ugm-3 (TEOM FDMS),14.600,R,ugm-3 (TEOM FDMS),3.500,R,ugm-3 (TEOM FDMS)
06-01-2015,23:00,10.600,R,ugm-3 (TEOM FDMS),13.700,R,ugm-3 (TEOM FDMS),3.100,R,ugm-3 (TEOM FDMS)
06-01-2015,24:00,10.300,R,ugm-3 (TEOM FDMS),12.400,R,ugm-3 (TEOM FDMS),2.100,R,ugm-3 (TEOM FDMS)
07-01-2015,01:00,7.500,R,ugm-3 (TEOM FDMS),10.600,R,ugm-3 (TEOM FDMS),3.100,R,ugm-3 (TEOM FDMS)
07-01-2015,02:00,9.700,R,ugm-3 (TEOM FDMS),12.500,R,ugm-3 (TEOM FDMS),2.800,R,ugm-3 (TEOM FDMS)
07-01-2015,03:00,7.500,R,ugm-3 (TEOM FDMS),10.100,R,ugm-3 (TEOM FDMS),2.600,R,ugm-3 (TEOM FDMS)
07-01-2015,04:00,3.900,R,ugm-3 (TEOM FDMS),6.800,R,ugm-3 (TEOM FDMS),2.900,R,ugm-3 (TEOM FDMS)
07-01-2015,05:00,2.600,R,ugm-3 (TEOM FDMS),3.900,R,ugm-3 (TEOM FDMS),1.300,R,ugm-3 (TEOM FDMS)
07-01-2015,06:00,0.300,R,ugm-3 (TEOM FDMS),2.900,R,ugm-3 (TEOM FDMS),2.600,R,ugm-3 (TEOM FDMS)
07-01-2015,07:00,0.900,R,ugm-3 (TEOM FDMS),3.400,R,ugm-3 (TEOM FDMS),2.500,R,ugm-3 (TEOM FDMS)
07-01-2015,08:00,2.200,R,ugm-3 (TEOM FDMS),4.300,R,ugm-3 (TEOM FDMS),2.100,R,ugm-3 (TEOM FDMS)
07-01-2015,09:00,3.100,R,ugm-3 (TEOM FDMS),2.600,R,ugm-3 (TEOM FDMS),-0.500,R,ugm-3 (TEOM FDMS)
07-01-2015,10:00,2.100,R,ugm-3 (TEOM FDMS),3.000,R,ugm-3 (TEOM FDMS),0.900,R,ugm-3 (TEOM FDMS)
07-01-2015,11:00,0.900,R,ugm-3 (TEOM FDMS),1.200,R,ugm-3 (TEOM FDMS),0.300,R,ugm-3 (TEOM FDMS)
07-01-2015,12:00,2.500,R,ugm-3 (TEOM FDMS),5.900,R,ugm-3 (TEOM FDMS),3.400,R,ugm-3 (TEOM FDMS)
07-01-2015,13:00,2.200,R,ugm-3 (TEOM FDMS),5.000,R,ugm-3 (TEOM FDMS),2.800,R,ugm-3 (TEOM FDMS)
07-01-2015,14:00,2.400,R,ugm-3 (TEOM FDMS),5.400,R,ugm-3 (TEOM FDMS),3.000,R,ugm-3 (TEOM FDMS)
07-01-2015,15:00,1.500,R,ugm-3 (TEOM FDMS),5.900,R,ugm-3 (TEOM FDMS),4.400,R,ugm-3 (TEOM FDMS)
07-01-2015,16:00,4.400,R,ugm-3 (TEOM FDMS),7.200,R,ugm-3 (TEOM FDMS),2.800,R,ugm-3 (TEOM FDMS)
07-01-2015,17:00,3.300,R,ugm-3 (TEOM FDMS),5.200,R,ugm-3 (TEOM FDMS),1.900,R,ugm-3 (TEOM FDMS)
07-01-2015,18:00,3.200,R,ugm-3 (TEOM FDMS),4.300,R,ugm-3 (TEOM FDMS),1.100,R,ugm-3 (TEOM FDMS)
07-01-2015,19:00,4.300,R,ugm-3 (TEOM FDMS),4.900,R,ugm-3 (TEOM FDMS),0.600,R,ugm-3 (TEOM FDMS)
07-01-2015,20:00,5.800,R,ugm-3 (TEOM FDMS),6.000,R,ugm-3 (TEOM FDMS),0.200,R,ugm-3 (TEOM FDMS)
07-01-2015,21:00,5.000,R,ugm-3 (TEOM FDMS),8.300,R,ugm-3 (TEOM FDMS),3.300,R,ugm-3 (TEOM FDMS)
07-01-2015,22:00,4.200,R,ugm-3 (TEOM FDMS),6.400,R,ugm-3 (TEOM FDMS),2.200,R,ugm-3 (TEOM FDMS)
07-01-2015,23:00,3.800,R,ugm-3 (TEOM FDMS),6.600,R,ugm-3 (TEOM FDMS),2.800,R,ugm-3 (TEOM FDMS)
07-01-2015,24:00,3.500,R,ugm-3 (TEOM FDMS),5.400,R,ugm-3 (TEOM FDMS),1.900,R,ugm-3 (TEOM FDMS)
08-01-2015,01:00,0.800,R,ugm-3 (TEOM FDMS),3.300,R,ugm-3 (TEOM FDMS),2.500,R,ugm-3 (TEOM FDMS)
08-01-2015,02:00,1.300,R,ugm-3 (TEOM FDMS),2.500,R,ugm-3 (TEOM FDMS),1.200,R,ugm-3 (TEOM FDMS)
08-01-2015,03:00,1.000,R,ugm-3 (TEOM FDMS),1.200,R,ugm-3 (TEOM FDMS),0.200,R,ugm-3 (TEOM FDMS)
08-01-2015,04:00,-0.200,R,ugm-3 (TEOM FDMS),0.600,R,ugm-3 (TEOM FDMS),0.800,R,ugm-3 (TEOM FDMS)
08-01-2015,05:00,-2.000,R,ugm-3 (TEOM FDMS),0.800,R,ugm-3 (TEOM FDMS),2.800,R,ugm-3 (TEOM FDMS)
08-01-2015,06:00,-0.600,R,ugm-3 (TEOM FDMS),1.400,R,ugm-3 (TEOM FDMS),2.000,R,ugm-3 (TEOM FDMS)
08-01-2015,07:00,-0.900,R,ugm-3 (TEOM FDMS),3.900,R,ugm-3 (TEOM FDMS),4.800,R,ugm-3 (TEOM FDMS)
08-01-2015,08:00,3.000,R,ugm-3 (TEOM FDMS),4.700,R,ugm-3 (TEOM FDMS),1.700,R,ugm-3 (TEOM FDMS)
08-01-2015,09:00,1.900,R,ugm-3 (TEOM FDMS),4.200,R,ugm-3 (TEOM FDMS),2.300,R,ugm-3 (TEOM FDMS)
08-01-2015,10:00,7.500,R,ugm-3 (TEOM FDMS),8.200,R,ugm-3 (TEOM FDMS),0.700,R,ugm-3 (TEOM FDMS)
08-01-2015,11:00,3.100,R,ugm-3 (TEOM FDMS),5.700,R,ugm-3 (TEOM FDMS),2.600,R,ugm-3 (TEOM FDMS)
08-01-2015,12:00,-0.900,R,ugm-3 (TEOM FDMS),0.000,R,ugm-3 (TEOM FDMS),0.900,R,ugm-3 (TEOM FDMS)
08-01-2015,13:00,6.700,R,ugm-3 (TEOM FDMS),7.800,R,ugm-3 (TEOM FDMS),1.100,R,ugm-3 (TEOM FDMS)
08-01-2015,14:00,5.500,R,ugm-3 (TEOM FDMS),4.500,R,ugm-3 (TEOM FDMS),-1.000,R,ugm-3 (TEOM FDMS)
08-01-2015,15:00,5.500,R,ugm-3 (TEOM FDMS),2.900,R,ugm-3 (TEOM FDMS),-2.600,R,ugm-3 (TEOM FDMS)
08-01-2015,16:00,4.500,R,ugm-3 (TEOM FDMS),6.800,R,ugm-3 (TEOM FDMS),2.300,R,ugm-3 (TEOM FDMS)
08-01-2015,17:00,4.700,R,ugm-3 (TEOM FDMS),5.500,R,ugm-3 (TEOM FDMS),0.800,R,ugm-3 (TEOM FDMS)
08-01-2015,18:00,8.000,R,ugm-3 (TEOM FDMS),7.900,R,ugm-3 (TEOM FDMS),-0.100,R,ugm-3 (TEOM FDMS)
08-01-2015,19:00,3.300,R,ugm-3 (TEOM FDMS),5.200,R,ugm-3 (TEOM FDMS),1.900,R,ugm-3 (TEOM FDMS)
08-01-2015,20:00,3.400,R,ugm-3 (TEOM FDMS),5.100,R,ugm-3 (TEOM FDMS),1.700,R,ugm-3 (TEOM FDMS)
08-01-2015,21:00,3.200,R,ugm-3 (TEOM FDMS),8.100,R,ugm-3 (TEOM FDMS),4.900,R,ugm-3 (TEOM FDMS)
08-01-2015,22:00,0.200,R,ugm-3 (TEOM FDMS),6.900,R,ugm-3 (TEOM FDMS),6.700,R,ugm-3 (TEOM FDMS)
08-01-2015,23:00,9.300,R,ugm-3 (TEOM FDMS),12.600,R,ugm-3 (TEOM FDMS),3.300,R,ugm-3 (TEOM FDMS)
08-01-2015,24:00,3.900,R,ugm-3 (TEOM FDMS),5.300,R,ugm-3 (TEOM FDMS),1.400,R,ugm-3 (TEOM FDMS)
09-01-2015,01:00,0.600,R,ugm-3 (TEOM FDMS),3.900,R,ugm-3 (TEOM FDMS),3.300,R,ugm-3 (TEOM FDMS)
09-01-2015,02:00,4.400,R,ugm-3 (TEOM FDMS),6.700,R,ugm-3 (TEOM FDMS),2.300,R,ugm-3 (TEOM FDMS)
09-01-2015,03:00,3.100,R,ugm-3 (TEOM FDMS),5.300,R,ugm-3 (TEOM FDMS),2.200,R,ugm-3 (TEOM FDMS)
09-01-2015,04:00,3.300,R,ugm-3 (TEOM FDMS),3.400,R,ugm-3 (TEOM FDMS),0.100,R,ugm-3 (TEOM FDMS)
09-01-2015,05:00,-0.500,R,ugm-3 (TEOM FDMS),1.700,R,ugm-3 (TEOM FDMS),2.200,R,ugm-3 (TEOM FDMS)
09-01-2015,06:00,,,,,,,,,
09-01-2015,07:00,-1.100,R,ugm-3 (TEOM FDMS),-3.000,R,ugm-3 (TEOM FDMS),-1.900,R,ugm-3 (TEOM FDMS)
09-01-2015,08:00,1.700,R,ugm-3 (TEOM FDMS),4.100,R,ugm-3 (TEOM FDMS),2.400,R,ugm-3 (TEOM FDMS)
09-01-2015,09:00,-0.800,R,ugm-3 (TEOM FDMS),1.600,R,ugm-3 (TEOM FDMS),2.400,R,ugm-3 (TEOM FDMS)
09-01-2015,10:00,0.700,R,ugm-3 (TEOM FDMS),2.200,R,ugm-3 (TEOM FDMS),1.500,R,ugm-3 (TEOM FDMS)
09-01-2015,11:00,7.200,R,ugm-3 (TEOM FDMS),7.600,R,ugm-3 (TEOM FDMS),0.400,R,ugm-3 (TEOM FDMS)
09-01-2015,12:00,1.100,R,ugm-3 (TEOM FDMS),2.400,R,ugm-3 (TEOM FDMS),1.300,R,ugm-3 (TEOM FDMS)
09-01-2015,13:00,1.800,R,ugm-3 (TEOM FDMS),4.900,R,ugm-3 (TEOM FDMS),3.100,R,ugm-3 (TEOM FDMS)
09-01-2015,14:00,4.200,R,ugm-3 (TEOM FDMS),7.900,R,ugm-3 (TEOM FDMS),3.700,R,ugm-3 (TEOM FDMS)
09-01-2015,15:00,6.400,R,ugm-3 (TEOM FDMS),8.200,R,ugm-3 (TEOM FDMS),1.800,R,ugm-3 (TEOM FDMS)
09-01-2015,16:00,12.200,R,ugm-3 (TEOM FDMS),11.900,R,ugm-3 (TEOM FDMS),-0.300,R,ugm-3 (TEOM FDMS)
09-01-2015,17:00,6.700,R,ugm-3 (TEOM FDMS),8.000,R,ugm-3 (TEOM FDMS),1.300,R,ugm-3 (TEOM FDMS)
09-01-2015,18:00,1.900,R,ugm-3 (TEOM FDMS),3.600,R,ugm-3 (TEOM FDMS),1.700,R,ugm-3 (TEOM FDMS)
09-01-2015,19:00,1.500,R,ugm-3 (TEOM FDMS),5.400,R,ugm-3 (TEOM FDMS),3.900,R,ugm-3 (TEOM FDMS)
09-01-2015,20:00,4.200,R,ugm-3 (TEOM FDMS),3.600,R,ugm-3 (TEOM FDMS),-0.600,R,ugm-3 (TEOM FDMS)
09-01-2015,21:00,-0.200,R,ugm-3 (TEOM FDMS),1.200,R,ugm-3 (TEOM FDMS),1.400,R,ugm-3 (TEOM FDMS)
09-01-2015,22:00,-0.700,R,ugm-3 (TEOM FDMS),1.700,R,ugm-3 (TEOM FDMS),2.400,R,ugm-3 (TEOM FDMS)
09-01-2015,23:00,1.600,R,ugm-3 (TEOM FDMS),1.300,R,ugm-3 (TEOM FDMS),-0.300,R,ugm-3 (TEOM FDMS)
09-01-2015,24:00,2.900,R,ugm-3 (TEOM FDMS),4.400,R,ugm-3 (TEOM FDMS),1.500,R,ugm-3 (TEOM FDMS)
10-01-2015,01:00,-0.500,R,ugm-3 (TEOM FDMS),1.800,R,ugm-3 (TEOM FDMS),2.300,R,ugm-3 (TEOM FDMS)
10-01-2015,02:00,-1.100,R,ugm-3 (TEOM FDMS),1.300,R,ugm-3 (TEOM FDMS),2.400,R,ugm-3 (TEOM FDMS)
10-01-2015,03:00,-1.700,R,ugm-3 (TEOM FDMS),-0.200,R,ugm-3 (TEOM FDMS),1.500,R,ugm-3 (TEOM FDMS)
10-01-2015,04:00,-1.000,R,ugm-3 (TEOM FDMS),2.000,R,ugm-3 (TEOM FDMS),3.000,R,ugm-3 (TEOM FDMS)
10-01-2015,05:00,-3.200,R,ugm-3 (TEOM FDMS),2.500,R,ugm-3 (TEOM FDMS),5.700,R,ugm-3 (TEOM FDMS)
10-01-2015,06:00,-0.100,R,ugm-3 (TEOM FDMS),3.800,R,ugm-3 (TEOM FDMS),3.900,R,ugm-3 (TEOM FDMS)
10-01-2015,07:00,-2.300,R,ugm-3 (TEOM FDMS),0.400,R,ugm-3 (TEOM FDMS),2.700,R,ugm-3 (TEOM FDMS)
10-01-2015,08:00,-0.400,R,ugm-3 (TEOM FDMS),2.600,R,ugm-3 (TEOM FDMS),3.000,R,ugm-3 (TEOM FDMS)
10-01-2015,09:00,0.900,R,ugm-3 (TEOM FDMS),2.400,R,ugm-3 (TEOM FDMS),1.500,R,ugm-3 (TEOM FDMS)
10-01-2015,10:00,0.500,R,ugm-3 (TEOM FDMS),0.900,R,ugm-3 (TEOM FDMS),0.400,R,ugm-3 (TEOM FDMS)
10-01-2015,11:00,3.400,R,ugm-3 (TEOM FDMS),4.500,R,ugm-3 (TEOM FDMS),1.100,R,ugm-3 (TEOM FDMS)
10-01-2015,12:00,0.300,R,ugm-3 (TEOM FDMS),0.900,R,ugm-3 (TEOM FDMS),0.600,R,ugm-3 (TEOM FDMS)
10-01-2015,13:00,2.100,R,ugm-3 (TEOM FDMS),4.000,R,ugm-3 (TEOM FDMS),1.900,R,ugm-3 (TEOM FDMS)
10-01-2015,14:00,2.700,R,ugm-3 (TEOM FDMS),5.300,R,ugm-3 (TEOM FDMS),2.600,R,ugm-3 (TEOM FDMS)
10-01-2015,15:00,3.000,R,ugm-3 (TEOM FDMS),3.000,R,ugm-3 (TEOM FDMS),0.000,R,ugm-3 (TEOM FDMS)
10-01-2015,16:00,3.000,R,ugm-3 (TEOM FDMS),4.800,R,ugm-3 (TEOM FDMS),1.800,R,ugm-3 (TEOM FDMS)
10-01-2015,17:00,6.300,R,ugm-3 (TEOM FDMS),7.800,R,ugm-3 (TEOM FDMS),1.500,R,ugm-3 (TEOM FDMS)
10-01-2015,18:00,5.500,R,ugm-3 (TEOM FDMS),5.900,R,ugm-3 (TEOM FDMS),0.400,R,ugm-3 (TEOM FDMS)
10-01-2015,19:00,4.300,R,ugm-3 (TEOM FDMS),6.500,R,ugm-3 (TEOM FDMS),2.200,R,ugm-3 (TEOM FDMS)
10-01-2015,20:00,4.400,R,ugm-3 (TEOM FDMS),6.100,R,ugm-3 (TEOM FDMS),1.700,R,ugm-3 (TEOM FDMS)
10-01-2015,21:00,4.900,R,ugm-3 (TEOM FDMS),6.100,R,ugm-3 (TEOM FDMS),1.200,R,ugm-3 (TEOM FDMS)
10-01-2015,22:00,6.100,R,ugm-3 (TEOM FDMS),5.900,R,ugm-3 (TEOM FDMS),-0.200,R,ugm-3 (TEOM FDMS)
10-01-2015,23:00,4.100,R,ugm-3 (TEOM FDMS),4.800,R,ugm-3 (TEOM FDMS),0.700,R,ugm-3 (TEOM FDMS)
10-01-2015,24:00,4.100,R,ugm-3 (TEOM FDMS),6.200,R,ugm-3 (TEOM FDMS),2.100,R,ugm-3 (TEOM FDMS)
11-01-2015,01:00,4.900,R,ugm-3 (TEOM FDMS),6.800,R,ugm-3 (TEOM FDMS),1.900,R,ugm-3 (TEOM FDMS)
11-01-2015,02:00,2.500,R,ugm-3 (TEOM FDMS),3.600,R,ugm-3 (TEOM FDMS),1.100,R,ugm-3 (TEOM FDMS)
11-01-2015,03:00,2.600,R,ugm-3 (TEOM FDMS),3.100,R,ugm-3 (TEOM FDMS),0.500,R,ugm-3 (TEOM FDMS)
11-01-2015,04:00,1.700,R,ugm-3 (TEOM FDMS),3.300,R,ugm-3 (TEOM FDMS),1.600,R,ugm-3 (TEOM FDMS)
11-01-2015,05:00,0.500,R,ugm-3 (TEOM FDMS),4.200,R,ugm-3 (TEOM FDMS),3.700,R,ugm-3 (TEOM FDMS)
11-01-2015,06:00,0.900,R,ugm-3 (TEOM FDMS),3.900,R,ugm-3 (TEOM FDMS),3.000,R,ugm-3 (TEOM FDMS)
11-01-2015,07:00,2.500,R,ugm-3 (TEOM FDMS),4.100,R,ugm-3 (TEOM FDMS),1.600,R,ugm-3 (TEOM FDMS)